Location: Alfortville
(48.8058°N, 2.4204°E)
Time: 14:08:58
(UTC+00:00)

Meteor 1-19 Rocket - Pass Details

Date: 10 December 2023
Orbit: 806 x 928 km, 81.2° (Epoch: 01 March)

Event Time Altitude Azimuth Distance (km) Brightness Sun altitude
Rises 05:54:27 0° 348° (NNW) 3,586 7.2 -15.2°
Reaches altitude 10° 05:56:59 10° 351° (N) 2,633 6.5 -14.8°
Maximum altitude 06:03:01 76° 77° (ENE) 942 4.5 -13.9°
Drops below altitude 10° 06:08:52 10° 163° (SSE) 2,555 7.2 -12.9°
Sets 06:11:17 0° 165° (SSE) 3,473 7.9 -12.6°
